{"data":{"norad_id":61062,"intl_designator":"2024-164N","name":"STARLINK-11236 [DTC]","alt_names":[],"object_type":"PAYLOAD","status":"ACTIVE","operator":null,"country":"US","launch_date":"2024-09-13","launch_site_code":"AFWTR","launch_vehicle":null,"mission":null,"orbit_class":"UNKNOWN","rcs_meters":null,"size_class":null,"mass_kg":null,"dimensions":null,"purposes":["comms"],"wikipedia_slug":null,"has_3d_model":false,"image_url":null,"decayed_at":null,"tle_current":{"epoch":"2026-09-21T16:48:50.409216Z","epoch_age_seconds":88439,"freshness":"FRESH","line1":"1 61062U 24164N   26264.70058344 -.00000230  00000+0  29529-5 0  9990","line2":"2 61062  53.1582  65.0744 0000576  72.0957 288.0124 15.69707947116205","mean_motion":15.69707947,"eccentricity":5.76e-5,"inclination_deg":53.1582,"raan_deg":65.0744,"arg_perigee_deg":72.0957,"mean_anomaly_deg":288.0124,"bstar":2.9529e-6,"rev_number":11620,"period_min":91.736810197853,"perigee_km":359.34452403592,"apogee_km":360.12072661676,"semimajor_km":6737.8696253263,"source":"CELESTRAK","updated_at":"2026-09-22T09:00:49.333546Z"}}}